FW9225 Weather Reports


time (UTC)temp
F
wind
direction
speed
knots
gust
knots
rain 1hr
in
rain 24hr
in
rain mn
in
humidity
%
barometer
mb
20260505081543 58 0 0.9 4.3 0.00 0.00 0.00 74 1010.3
20260505080045 58 0 0.0 5.2 0.00 0.00 0.00 74 1010.2
20260505074538 58 115 0.0 5.2 0.00 0.00 0.00 74 1010.1
20260505073050 58 117 0.0 5.2 0.00 0.00 0.00 73 1010.2
20260505071554 58 117 0.0 4.3 0.00 0.00 0.00 72 1010.2
20260505070045 58 0 0.0 3.5 0.00 0.00 0.00 72 1010.2
20260505064543 58 127 0.9 3.5 0.00 0.00 0.00 72 1010.2
20260505063040 58 114 0.0 1.7 0.00 0.00 0.00 71 1010.2
20260505061550 58 0 1.7 5.2 0.00 0.00 0.00 71 1010.3
20260505060051 58 0 0.0 1.7 0.00 0.00 0.00 71 1010.2
20260505054546 57 0 0.0 0.9 0.00 0.00 0.00 70 1010.3
20260505053042 58 0 0.0 1.7 0.00 0.00 0.00 69 1010.4
20260505051544 58 0 0.0 0.9 0.00 0.00 0.00 67 1010.3
20260505041540 60 143 0.0 3.5 0.00 0.00 0.00 61 1010.2
20260505040041 61 0 0.9 6.1 0.00 0.00 0.00 59 1010.1
20260505034542 61 0 0.0 1.7 0.00 0.00 0.00 58 1010.1
20260505033042 61 117 0.0 6.1 0.00 0.00 0.00 56 1010.2
20260505031541 61 0 0.0 5.2 0.00 0.00 0.00 55 1010.3
20260505030040 62 0 0.0 4.3 0.00 0.00 0.00 54 1010.3
20260505024544 62 0 0.0 0.9 0.00 0.00 0.00 53 1010.2
20260505023045 63 0 0.0 4.3 0.00 0.00 0.00 52 1010.4
20260505021542 63 120 0.0 5.2 0.00 0.00 0.00 51 1010.5
20260505020046 63 0 0.0 3.5 0.00 0.00 0.00 52 1010.6
20260505014540 62 0 0.0 0.9 0.00 0.00 0.00 52 1010.5
20260505013059 64 0 0.0 0.9 0.00 0.00 0.00 50 1010.3
20260505011543 64 0 1.7 5.2 0.00 0.00 0.00 49 1010.2
20260505010043 64 0 0.0 2.6 0.00 0.00 0.00 49 1010.1
20260505004541 65 0 0.0 2.6 0.00 0.00 0.00 48 1009.9
20260505003039 65 114 0.0 2.6 0.00 0.00 0.00 47 1009.7
20260505001544 66 0 0.0 5.2 0.00 0.00 0.00 46 1009.6
20260505000050 67 0 0.9 5.2 0.00 0.00 0.00 44 1009.6
20260504234538 68 117 0.0 3.5 0.00 0.00 0.00 43 1009.5
20260504233041 70 94 2.6 7.8 0.00 0.00 0.00 41 1009.6
20260504231535 71 113 3.5 9.6 0.00 0.00 0.00 41 1009.6
20260504230037 72 345 3.5 7.0 0.00 0.00 0.00 39 1009.5
20260504224543 72 345 1.7 7.0 0.00 0.00 0.00 38 1009.6
20260504223050 72 345 2.6 8.7 0.00 0.00 0.00 38 1009.4
20260504221541 73 345 2.6 10.4 0.00 0.00 0.00 37 1009.5
20260504220042 74 58 1.7 8.7 0.00 0.00 0.00 37 1009.5
20260504214542 73 124 0.0 12.2 0.00 0.00 0.00 39 1009.6
20260504213044 73 113 2.6 8.7 0.00 0.00 0.00 40 1009.8
20260504211552 72 109 4.3 13.0 0.00 0.00 0.00 37 1009.7
20260504210044 72 114 3.5 8.7 0.00 0.00 0.00 38 1009.7
20260504204538 72 119 2.6 9.6 0.00 0.00 0.00 40 1009.7
20260504203037 72 98 2.6 9.6 0.00 0.00 0.00 39 1010.0
20260504201558 71 105 3.5 11.3 0.00 0.00 0.00 39 1010.0
20260504200045 71 112 4.3 10.4 0.00 0.00 0.00 40 1010.2
20260504194547 71 126 4.3 11.3 0.00 0.00 0.00 39 1010.3
20260504193039 71 113 0.9 9.6 0.00 0.00 0.00 39 1010.4
20260504191543 71 122 2.6 10.4 0.00 0.00 0.00 40 1010.6
20260504190047 70 89 2.6 8.7 0.00 0.00 0.00 38 1010.8
20260504184557 70 113 2.6 10.4 0.00 0.00 0.00 40 1011.0
20260504183042 69 111 3.5 10.4 0.00 0.00 0.00 39 1011.1
20260504181541 69 44 3.5 9.6 0.00 0.00 0.00 41 1011.4
20260504180042 69 113 7.0 13.0 0.00 0.00 0.00 41 1011.6
20260504174545 68 65 4.3 11.3 0.00 0.00 0.00 41 1011.7
20260504173041 68 93 3.5 9.6 0.00 0.00 0.00 44 1011.8
20260504171540 68 101 2.6 10.4 0.00 0.00 0.00 44 1012.1